This is the latest recevied weather packets stored in our database for station/object WC4PEM-11. If no packets are shown the sender has not sent any weather packets the latest 10 day(s).
| Time | Temp. | Humidity | Pressure | Rain* | Wind** | Luminosity | Snow |
|---|---|---|---|---|---|---|---|
| 1777906687 | 25.56° C | 58% | 1017.4 hPa | 0 mm | - | - | - |
| 1777906387 | 25.56° C | 59% | 1017.3 hPa | 0 mm | - | - | - |
| 1777906087 | 25° C | 60% | 1017.3 hPa | 0 mm | - | - | - |
| 1777905787 | 25° C | 56% | 1017.3 hPa | 0 mm | - | - | - |
| 1777905487 | 24.44° C | 57% | 1017.4 hPa | 0 mm | - | - | - |
| 1777905395 | 24.44° C | 64% | 1017.3 hPa | 0 mm | - | - | - |
| 1777905187 | 24.44° C | 59% | 1017.2 hPa | 0 mm | - | - | - |
| 1777904887 | 24.44° C | 62% | 1017.2 hPa | 0 mm | - | - | - |
| 1777904587 | 24.44° C | 64% | 1017.3 hPa | 0 mm | - | - | - |
| 1777904287 | 24.44° C | 64% | 1017.2 hPa | 0 mm | - | - | - |
| 1777903987 | 23.89° C | 66% | 1017.1 hPa | 0 mm | - | - | - |
| 1777903939 | 23.33° C | 69% | 1017.2 hPa | 0 mm | - | - | - |
| 1777903687 | 23.89° C | 65% | 1017.2 hPa | 0 mm | - | - | - |
| 1777903387 | 23.89° C | 68% | 1017.2 hPa | 0 mm | - | - | - |
| 1777903087 | 23.33° C | 69% | 1017.3 hPa | 0 mm | - | - | - |
| 1777902787 | 23.33° C | 69% | 1017.2 hPa | 0 mm | - | - | - |
| 1777902672 | 23.33° C | 70% | 1017 hPa | 0 mm | - | - | - |
| 1777902487 | 23.33° C | 70% | 1017.1 hPa | 0 mm | - | - | - |
| 1777902187 | 23.33° C | 70% | 1017 hPa | 0 mm | - | - | - |
| 1777901887 | 23.33° C | 70% | 1017.1 hPa | 0 mm | - | - | - |
| 1777901587 | 23.33° C | 71% | 1016.9 hPa | 0 mm | - | - | - |
| 1777901287 | 22.78° C | 72% | 1016.9 hPa | 0 mm | - | - | - |
| 1777900987 | 22.78° C | 72% | 1016.9 hPa | 0 mm | - | - | - |
| 1777900687 | 22.22° C | 74% | 1016.8 hPa | 0 mm | - | - | - |
| 1777900387 | 22.22° C | 74% | 1016.8 hPa | 0 mm | - | - | - |
* Rain latest hour (hover to see other rain measurements)
** Current wind speed in m/s (hover to see current wind gust speed)